LAN65 SCEL-SCTE

Flight info

Callsign LAN65
Flight time 1h 25m
Altitude 39000
Route ANGOD6C ANGOD UQ803 ERUKA DCT SARTO SARTO2A
Aircraft CRJ7/M-SDFGIRWY/S

Departure

Time 2026-04-24 02:00
Airport Comodoro Arturo Merino Benítez International Airport (SCEL)

Arrival

Time 2026-04-24 03:26
Airport El Tepual International Airport (SCTE)
Time Latitude Longitude Altitude Speed Heading
2026-04-24 01:23 -33.39699 -70.79008 1558 ft 0 kts 359°
2026-04-24 01:48 -33.39712 -70.79009 1558 ft 4 kts
2026-04-24 01:49 -33.39737 -70.79018 1558 ft 4 kts 35°
2026-04-24 01:49 -33.39749 -70.79041 1558 ft 3 kts 85°
2026-04-24 01:49 -33.39749 -70.79044 1558 ft 1 kts 87°
2026-04-24 01:51 -33.39749 -70.79029 1558 ft 4 kts 88°
2026-04-24 01:51 -33.39747 -70.78970 1558 ft 10 kts 88°
2026-04-24 01:51 -33.39730 -70.78885 1558 ft 5 kts 30°
2026-04-24 01:51 -33.39692 -70.78884 1557 ft 7 kts 358°
2026-04-24 01:52 -33.39627 -70.78886 1557 ft 12 kts 358°
2026-04-24 01:52 -33.39530 -70.78891 1557 ft 16 kts 358°
2026-04-24 01:52 -33.39406 -70.78899 1557 ft 19 kts 359°
2026-04-24 01:52 -33.39307 -70.78941 1556 ft 12 kts 271°
2026-04-24 01:53 -33.39311 -70.79043 1556 ft 13 kts 267°
2026-04-24 01:53 -33.39315 -70.79154 1557 ft 14 kts 267°
2026-04-24 01:53 -33.39320 -70.79273 1557 ft 15 kts 268°
2026-04-24 01:53 -33.39325 -70.79400 1557 ft 16 kts 267°
2026-04-24 01:54 -33.39330 -70.79535 1557 ft 17 kts 267°
2026-04-24 01:54 -33.39336 -70.79676 1557 ft 17 kts 267°
2026-04-24 01:54 -33.39343 -70.79824 1558 ft 18 kts 267°
2026-04-24 01:54 -33.39348 -70.79980 1558 ft 19 kts 271°
2026-04-24 01:55 -33.39273 -70.80060 1557 ft 16 kts
2026-04-24 01:55 -33.39156 -70.80064 1557 ft 17 kts 357°
2026-04-24 01:55 -33.39033 -70.80070 1557 ft 18 kts 357°
2026-04-24 01:55 -33.38903 -70.80078 1557 ft 19 kts 358°
2026-04-24 01:56 -33.38769 -70.80085 1557 ft 20 kts 357°
2026-04-24 01:56 -33.38624 -70.80093 1557 ft 21 kts 357°
2026-04-24 01:56 -33.38474 -70.80101 1556 ft 22 kts 357°
2026-04-24 01:56 -33.38315 -70.80109 1555 ft 23 kts 357°
2026-04-24 01:57 -33.38148 -70.80118 1555 ft 24 kts 358°
2026-04-24 01:57 -33.37977 -70.80127 1554 ft 25 kts 358°
2026-04-24 01:57 -33.37801 -70.80136 1554 ft 26 kts 358°
2026-04-24 01:57 -33.37621 -70.80145 1554 ft 26 kts 357°
2026-04-24 01:58 -33.37439 -70.80156 1554 ft 26 kts 357°
2026-04-24 01:58 -33.37254 -70.80165 1553 ft 27 kts 358°
2026-04-24 01:58 -33.37114 -70.80213 1553 ft 14 kts 290°
2026-04-24 01:58 -33.37114 -70.80326 1553 ft 14 kts 239°
2026-04-24 01:59 -33.37200 -70.80372 1553 ft 15 kts 177°
2026-04-24 01:59 -33.37210 -70.80372 1553 ft 0 kts 177°
2026-04-24 01:59 -33.37300 -70.80366 1553 ft 40 kts 176°
2026-04-24 01:59 -33.37789 -70.80341 1553 ft 98 kts 178°
2026-04-24 02:00 -33.38637 -70.80294 1559 ft 144 kts 176°
2026-04-24 02:00 -33.39681 -70.80277 1883 ft 153 kts 178°
2026-04-24 02:00 -33.40772 -70.80255 2359 ft 161 kts 177°
2026-04-24 02:00 -33.41896 -70.80192 2884 ft 163 kts 175°
2026-04-24 02:01 -33.43039 -70.80092 3389 ft 168 kts 175°
2026-04-24 02:01 -33.44232 -70.79988 3867 ft 176 kts 175°
2026-04-24 02:01 -33.45486 -70.79897 4362 ft 184 kts 176°
2026-04-24 02:01 -33.46791 -70.79822 4875 ft 191 kts 176°
2026-04-24 02:02 -33.48148 -70.79747 5377 ft 202 kts 177°
2026-04-24 02:02 -33.49637 -70.79666 5870 ft 226 kts 177°
2026-04-24 02:02 -33.51262 -70.79577 6389 ft 248 kts 177°
2026-04-24 02:02 -33.53078 -70.79472 6910 ft 268 kts 177°
2026-04-24 02:03 -33.57001 -70.79261 8277 ft 290 kts 178°
2026-04-24 02:03 -33.59034 -70.79180 9138 ft 295 kts 183°
2026-04-24 02:03 -33.61070 -70.79595 10020 ft 298 kts 195°
2026-04-24 02:04 -33.63077 -70.80269 10832 ft 301 kts 198°
2026-04-24 02:04 -33.65096 -70.80996 11652 ft 304 kts 198°
2026-04-24 02:04 -33.67147 -70.81729 12354 ft 314 kts 198°
2026-04-24 02:04 -33.69306 -70.82457 12773 ft 331 kts 197°
2026-04-24 02:05 -33.71588 -70.83174 13205 ft 348 kts 196°
2026-04-24 02:05 -33.73989 -70.83921 13660 ft 363 kts 197°
2026-04-24 02:05 -33.76483 -70.84699 14087 ft 378 kts 197°
2026-04-24 02:05 -33.79082 -70.85510 14479 ft 392 kts 197°
2026-04-24 02:06 -33.81758 -70.86343 14882 ft 403 kts 197°
2026-04-24 02:06 -33.84477 -70.87192 15621 ft 404 kts 197°
2026-04-24 02:06 -33.87211 -70.88039 16242 ft 407 kts 197°
2026-04-24 02:06 -33.89944 -70.88894 16940 ft 408 kts 196°
2026-04-24 02:07 -33.92672 -70.89739 17527 ft 411 kts 197°
2026-04-24 02:07 -33.95449 -70.90617 18109 ft 414 kts 197°
2026-04-24 02:07 -33.98251 -70.91484 18647 ft 417 kts 197°
2026-04-24 02:07 -34.00458 -70.92165 19036 ft 420 kts 197°
2026-04-24 02:08 -34.03308 -70.92991 19537 ft 422 kts 196°
2026-04-24 02:08 -34.06181 -70.93781 20039 ft 424 kts 195°
2026-04-24 02:08 -34.09073 -70.94570 20520 ft 427 kts 196°
2026-04-24 02:08 -34.11977 -70.95356 20984 ft 429 kts 196°
2026-04-24 02:09 -34.14895 -70.96148 21454 ft 431 kts 196°
2026-04-24 02:09 -34.17831 -70.96950 21884 ft 433 kts 196°
2026-04-24 02:09 -34.20778 -70.97754 22319 ft 435 kts 197°
2026-04-24 02:09 -34.23744 -70.98565 22730 ft 437 kts 197°
2026-04-24 02:10 -34.26683 -70.99363 23136 ft 439 kts 197°
2026-04-24 02:10 -34.29349 -71.00090 23474 ft 441 kts 197°
2026-04-24 02:10 -34.32015 -71.00821 23774 ft 443 kts 197°
2026-04-24 02:10 -34.35026 -71.01645 24083 ft 444 kts 197°
2026-04-24 02:11 -34.38045 -71.02470 24384 ft 446 kts 197°
2026-04-24 02:11 -34.41073 -71.03300 24664 ft 448 kts 197°
2026-04-24 02:11 -34.44119 -71.04131 24939 ft 449 kts 197°
2026-04-24 02:11 -34.47180 -71.04973 25202 ft 451 kts 197°
2026-04-24 02:12 -34.50248 -71.05811 25436 ft 453 kts 197°
2026-04-24 02:12 -34.53330 -71.06661 25711 ft 455 kts 197°
2026-04-24 02:12 -34.56418 -71.07510 25919 ft 456 kts 197°
2026-04-24 02:12 -34.59522 -71.08357 26155 ft 457 kts 197°
2026-04-24 02:13 -34.62631 -71.09213 26378 ft 459 kts 197°
2026-04-24 02:13 -34.65750 -71.10079 26590 ft 460 kts 197°
2026-04-24 02:13 -34.68877 -71.10942 26792 ft 461 kts 197°
2026-04-24 02:13 -34.72018 -71.11814 26983 ft 463 kts 196°
2026-04-24 02:14 -34.75173 -71.12613 27173 ft 465 kts 195°
2026-04-24 02:14 -34.78340 -71.13357 27569 ft 461 kts 194°
2026-04-24 02:14 -34.81440 -71.14103 27974 ft 457 kts 195°
2026-04-24 02:14 -34.84549 -71.14864 28398 ft 453 kts 195°
2026-04-24 02:15 -34.87636 -71.15616 28819 ft 449 kts 195°
2026-04-24 02:15 -34.90685 -71.16359 29255 ft 445 kts 195°
2026-04-24 02:15 -34.93716 -71.17097 29703 ft 441 kts 195°
2026-04-24 02:15 -34.96714 -71.17829 30155 ft 437 kts 195°
2026-04-24 02:16 -34.99695 -71.18553 30319 ft 439 kts 195°
2026-04-24 02:16 -35.02005 -71.19117 30482 ft 438 kts 195°
2026-04-24 02:16 -35.04992 -71.19848 30706 ft 438 kts 195°
2026-04-24 02:16 -35.07985 -71.20577 30922 ft 438 kts 195°
2026-04-24 02:17 -35.10968 -71.21307 31121 ft 438 kts 195°
2026-04-24 02:17 -35.13952 -71.22039 31340 ft 437 kts 195°
2026-04-24 02:17 -35.16929 -71.22769 31574 ft 437 kts 195°
2026-04-24 02:17 -35.19910 -71.23497 31777 ft 437 kts 195°
2026-04-24 02:18 -35.22885 -71.24225 32013 ft 436 kts 195°
2026-04-24 02:18 -35.25821 -71.24947 32215 ft 435 kts 195°
2026-04-24 02:18 -35.28787 -71.25678 32439 ft 435 kts 195°
2026-04-24 02:18 -35.31751 -71.26407 32644 ft 434 kts 195°
2026-04-24 02:19 -35.34718 -71.27136 32838 ft 434 kts 195°
2026-04-24 02:19 -35.37683 -71.27865 33036 ft 434 kts 195°
2026-04-24 02:19 -35.40639 -71.28593 33223 ft 434 kts 196°
2026-04-24 02:19 -35.43594 -71.29323 33433 ft 433 kts 196°
2026-04-24 02:20 -35.46551 -71.30052 33611 ft 433 kts 196°
2026-04-24 02:20 -35.49513 -71.30780 33792 ft 433 kts 196°
2026-04-24 02:20 -35.52465 -71.31512 33983 ft 432 kts 196°
2026-04-24 02:20 -35.55411 -71.32235 34149 ft 432 kts 196°
2026-04-24 02:21 -35.58366 -71.32939 34299 ft 432 kts 195°
2026-04-24 02:21 -35.61323 -71.33645 34402 ft 433 kts 196°
2026-04-24 02:21 -35.64276 -71.34348 34541 ft 432 kts 196°
2026-04-24 02:21 -35.67224 -71.35074 34676 ft 432 kts 196°
2026-04-24 02:22 -35.70169 -71.35803 34814 ft 432 kts 197°
2026-04-24 02:22 -35.73116 -71.36538 34935 ft 432 kts 197°
2026-04-24 02:22 -35.76065 -71.37270 35046 ft 432 kts 197°
2026-04-24 02:22 -35.79009 -71.38003 35195 ft 432 kts 197°
2026-04-24 02:23 -35.81957 -71.38740 35316 ft 432 kts 197°
2026-04-24 02:23 -35.84909 -71.39478 35433 ft 432 kts 197°
2026-04-24 02:23 -35.87819 -71.40203 35553 ft 432 kts 197°
2026-04-24 02:23 -35.90763 -71.40939 35695 ft 432 kts 197°
2026-04-24 02:24 -35.93711 -71.41678 35819 ft 432 kts 197°
2026-04-24 02:24 -35.96661 -71.42414 35920 ft 432 kts 197°
2026-04-24 02:24 -35.99612 -71.43155 36052 ft 432 kts 197°
2026-04-24 02:24 -36.01723 -71.43683 36173 ft 432 kts 197°
2026-04-24 02:25 -36.07618 -71.45162 36381 ft 432 kts 197°
2026-04-24 02:25 -36.10566 -71.45905 36512 ft 432 kts 197°
2026-04-24 02:25 -36.13514 -71.46645 36616 ft 432 kts 197°
2026-04-24 02:26 -36.16465 -71.47386 36733 ft 432 kts 198°
2026-04-24 02:26 -36.19413 -71.48130 36850 ft 432 kts 198°
2026-04-24 02:26 -36.25308 -71.49627 37051 ft 432 kts 198°
2026-04-24 02:27 -36.28257 -71.50364 37179 ft 432 kts 198°
2026-04-24 02:27 -36.31202 -71.51106 37260 ft 432 kts 198°
2026-04-24 02:27 -36.34115 -71.51841 37378 ft 432 kts 198°
2026-04-24 02:27 -36.37070 -71.52591 37457 ft 433 kts 198°
2026-04-24 02:28 -36.40014 -71.53336 37564 ft 432 kts 198°
2026-04-24 02:28 -36.42967 -71.54082 37640 ft 433 kts 198°
2026-04-24 02:28 -36.45900 -71.54828 37770 ft 432 kts 198°
2026-04-24 02:28 -36.48862 -71.55577 37867 ft 432 kts 198°
2026-04-24 02:29 -36.51810 -71.56331 38028 ft 432 kts 198°
2026-04-24 02:29 -36.54743 -71.57074 38141 ft 432 kts 198°
2026-04-24 02:29 -36.60630 -71.58568 38306 ft 432 kts 198°
2026-04-24 02:30 -36.66493 -71.60065 38500 ft 431 kts 198°
2026-04-24 02:30 -36.72390 -71.61627 38660 ft 431 kts 198°
2026-04-24 02:31 -36.77276 -71.62898 38837 ft 431 kts 198°
2026-04-24 02:31 -36.83157 -71.64405 38961 ft 431 kts 198°
2026-04-24 02:32 -36.86088 -71.65155 39101 ft 429 kts 198°
2026-04-24 02:32 -36.89012 -71.65901 39160 ft 429 kts 198°
2026-04-24 02:32 -36.94865 -71.67408 39221 ft 430 kts 198°
2026-04-24 02:33 -37.00742 -71.68922 39256 ft 433 kts 198°
2026-04-24 02:33 -37.05870 -71.70242 39246 ft 433 kts 198°
2026-04-24 02:34 -37.11748 -71.71757 39252 ft 429 kts 198°
2026-04-24 02:34 -37.17591 -71.73269 39257 ft 428 kts 198°
2026-04-24 02:35 -37.23430 -71.74770 39275 ft 427 kts 198°
2026-04-24 02:35 -37.29255 -71.76288 39264 ft 427 kts 198°
2026-04-24 02:36 -37.35079 -71.77799 39262 ft 428 kts 198°
2026-04-24 02:36 -37.40920 -71.79317 39263 ft 429 kts 198°
2026-04-24 02:37 -37.46774 -71.80839 39267 ft 429 kts 198°
2026-04-24 02:37 -37.52600 -71.82360 39271 ft 430 kts 198°
2026-04-24 02:38 -37.58466 -71.83896 39268 ft 431 kts 198°
2026-04-24 02:38 -37.64349 -71.85434 39273 ft 431 kts 198°
2026-04-24 02:39 -37.70227 -71.86973 39284 ft 431 kts 198°
2026-04-24 02:39 -37.76085 -71.88629 39281 ft 431 kts 200°
2026-04-24 02:40 -37.81858 -71.90483 39297 ft 430 kts 200°
2026-04-24 02:40 -37.87708 -71.92341 39285 ft 432 kts 200°
2026-04-24 02:41 -37.93542 -71.94162 39290 ft 432 kts 200°
2026-04-24 02:41 -37.99391 -71.95990 39295 ft 433 kts 200°
2026-04-24 02:42 -38.04615 -71.97627 39300 ft 433 kts 200°
2026-04-24 02:42 -38.10465 -71.99467 39294 ft 433 kts 200°
2026-04-24 02:43 -38.15727 -72.01121 39289 ft 433 kts 200°
2026-04-24 02:43 -38.21590 -72.02976 39301 ft 434 kts 200°
2026-04-24 02:44 -38.27451 -72.04835 39295 ft 434 kts 200°
2026-04-24 02:44 -38.33315 -72.06686 39295 ft 434 kts 200°
2026-04-24 02:45 -38.39187 -72.08544 39290 ft 434 kts 200°
2026-04-24 02:45 -38.45027 -72.10395 39302 ft 435 kts 200°
2026-04-24 02:46 -38.50900 -72.12275 39286 ft 435 kts 200°
2026-04-24 02:46 -38.56780 -72.14123 39282 ft 434 kts 200°
2026-04-24 02:47 -38.62631 -72.15992 39277 ft 432 kts 200°
2026-04-24 02:47 -38.68456 -72.17799 39282 ft 430 kts 200°
2026-04-24 02:48 -38.74261 -72.19632 39275 ft 428 kts 200°
2026-04-24 02:48 -38.80011 -72.21478 39271 ft 424 kts 200°
2026-04-24 02:49 -38.85711 -72.23309 39267 ft 420 kts 201°
2026-04-24 02:49 -38.91362 -72.25125 39272 ft 417 kts 201°
2026-04-24 02:50 -38.96960 -72.26936 39257 ft 413 kts 201°
2026-04-24 02:50 -39.01854 -72.28504 39252 ft 410 kts 201°
2026-04-24 02:51 -39.04619 -72.29395 39134 ft 412 kts 201°
2026-04-24 02:51 -39.07393 -72.30294 38787 ft 419 kts 201°
2026-04-24 02:51 -39.10232 -72.31210 38367 ft 421 kts 201°
2026-04-24 02:51 -39.13069 -72.32126 37978 ft 421 kts 201°
2026-04-24 02:52 -39.15918 -72.33041 37564 ft 421 kts 201°
2026-04-24 02:52 -39.18765 -72.33957 37130 ft 421 kts 201°
2026-04-24 02:52 -39.21604 -72.34878 36735 ft 421 kts 201°
2026-04-24 02:52 -39.24455 -72.35801 36344 ft 421 kts 201°
2026-04-24 02:53 -39.27300 -72.36727 35967 ft 421 kts 201°
2026-04-24 02:53 -39.30144 -72.37652 35593 ft 422 kts 201°
2026-04-24 02:53 -39.32993 -72.38575 35232 ft 421 kts 201°
2026-04-24 02:53 -39.35836 -72.39504 34884 ft 421 kts 201°
2026-04-24 02:54 -39.38641 -72.40415 34521 ft 421 kts 201°
2026-04-24 02:54 -39.41516 -72.41354 34148 ft 421 kts 201°
2026-04-24 02:54 -39.44322 -72.42268 33734 ft 421 kts 201°
2026-04-24 02:54 -39.47160 -72.43196 33310 ft 421 kts 201°
2026-04-24 02:55 -39.49999 -72.44123 32901 ft 420 kts 201°
2026-04-24 02:55 -39.52826 -72.45054 32497 ft 417 kts 201°
2026-04-24 02:55 -39.55611 -72.45961 32111 ft 409 kts 201°
2026-04-24 02:55 -39.58350 -72.46857 31753 ft 403 kts 201°
2026-04-24 02:56 -39.61047 -72.47740 31381 ft 399 kts 201°
2026-04-24 02:56 -39.63738 -72.48624 31011 ft 399 kts 201°
2026-04-24 02:56 -39.66406 -72.49499 30656 ft 399 kts 201°
2026-04-24 02:56 -39.69098 -72.50386 30304 ft 399 kts 201°
2026-04-24 02:57 -39.71783 -72.51270 29906 ft 397 kts 201°
2026-04-24 02:57 -39.74446 -72.52138 29502 ft 393 kts 201°
2026-04-24 02:57 -39.77083 -72.53016 29101 ft 389 kts 202°
2026-04-24 02:57 -39.79687 -72.53889 28718 ft 386 kts 201°
2026-04-24 02:58 -39.82282 -72.54743 28342 ft 383 kts 201°
2026-04-24 02:58 -39.84865 -72.55575 27962 ft 381 kts 201°
2026-04-24 02:58 -39.87434 -72.56395 27599 ft 379 kts 201°
2026-04-24 02:58 -39.89994 -72.57215 27241 ft 378 kts 201°
2026-04-24 02:59 -39.92544 -72.58038 26900 ft 378 kts 201°
2026-04-24 02:59 -39.95098 -72.58867 26551 ft 377 kts 201°
2026-04-24 02:59 -39.97641 -72.59692 26214 ft 377 kts 201°
2026-04-24 02:59 -40.00068 -72.60482 25892 ft 376 kts 201°
2026-04-24 03:00 -40.01971 -72.61109 25637 ft 376 kts 201°
2026-04-24 03:00 -40.04466 -72.61946 25338 ft 374 kts 200°
2026-04-24 03:00 -40.06984 -72.62772 25013 ft 371 kts 200°
2026-04-24 03:00 -40.09475 -72.63581 24695 ft 366 kts 200°
2026-04-24 03:01 -40.11581 -72.64266 24423 ft 362 kts 200°
2026-04-24 03:01 -40.13764 -72.64978 24149 ft 359 kts 200°
2026-04-24 03:01 -40.16183 -72.65767 23843 ft 356 kts 200°
2026-04-24 03:01 -40.18581 -72.66548 23496 ft 355 kts 200°
2026-04-24 03:02 -40.20982 -72.67328 23134 ft 356 kts 200°
2026-04-24 03:02 -40.23388 -72.68112 22781 ft 356 kts 200°
2026-04-24 03:02 -40.25766 -72.68891 22471 ft 357 kts 200°
2026-04-24 03:02 -40.28171 -72.69671 22131 ft 354 kts 200°
2026-04-24 03:03 -40.30109 -72.70302 21857 ft 351 kts 200°
2026-04-24 03:03 -40.32472 -72.71078 21530 ft 349 kts 200°
2026-04-24 03:03 -40.34821 -72.71849 21213 ft 346 kts 200°
2026-04-24 03:03 -40.37155 -72.72610 20888 ft 344 kts 200°
2026-04-24 03:04 -40.39480 -72.73371 20575 ft 342 kts 200°
2026-04-24 03:04 -40.41782 -72.74129 20263 ft 340 kts 200°
2026-04-24 03:04 -40.44074 -72.74883 19965 ft 339 kts 200°
2026-04-24 03:04 -40.46356 -72.75628 19668 ft 337 kts 200°
2026-04-24 03:05 -40.48600 -72.76364 19393 ft 336 kts 200°
2026-04-24 03:05 -40.50865 -72.77109 19103 ft 334 kts 200°
2026-04-24 03:05 -40.53122 -72.77855 18823 ft 333 kts 200°
2026-04-24 03:05 -40.55369 -72.78598 18545 ft 332 kts 200°
2026-04-24 03:06 -40.57606 -72.79329 18241 ft 331 kts 200°
2026-04-24 03:06 -40.59840 -72.80065 17922 ft 329 kts 200°
2026-04-24 03:06 -40.62045 -72.80797 17609 ft 326 kts 200°
2026-04-24 03:06 -40.64235 -72.81519 17299 ft 323 kts 200°
2026-04-24 03:07 -40.66406 -72.82237 16996 ft 320 kts 200°
2026-04-24 03:07 -40.68561 -72.82951 16691 ft 318 kts 200°
2026-04-24 03:07 -40.70700 -72.83657 16417 ft 316 kts 201°
2026-04-24 03:07 -40.72824 -72.84360 16129 ft 314 kts 201°
2026-04-24 03:08 -40.74930 -72.85057 15843 ft 312 kts 201°
2026-04-24 03:08 -40.79112 -72.86444 15270 ft 308 kts 201°
2026-04-24 03:08 -40.81184 -72.87132 14998 ft 306 kts 201°
2026-04-24 03:09 -40.83245 -72.87819 14730 ft 304 kts 201°
2026-04-24 03:09 -40.85273 -72.88489 14470 ft 303 kts 201°
2026-04-24 03:09 -40.87334 -72.89174 14206 ft 301 kts 201°
2026-04-24 03:09 -40.89340 -72.89845 13943 ft 299 kts 201°
2026-04-24 03:10 -40.91348 -72.90514 13672 ft 298 kts 201°
2026-04-24 03:10 -40.93356 -72.91182 13384 ft 296 kts 201°
2026-04-24 03:10 -40.95367 -72.91807 13095 ft 298 kts 196°
2026-04-24 03:10 -40.97426 -72.92119 12813 ft 299 kts 191°
2026-04-24 03:11 -40.99505 -72.92305 12532 ft 298 kts 191°
2026-04-24 03:11 -41.01097 -72.92437 12314 ft 297 kts 190°
2026-04-24 03:11 -41.03155 -72.92620 12036 ft 295 kts 191°
2026-04-24 03:11 -41.05187 -72.92850 11764 ft 292 kts 192°
2026-04-24 03:12 -41.07212 -72.93093 11495 ft 290 kts 191°
2026-04-24 03:12 -41.09214 -72.93346 11233 ft 288 kts 192°
2026-04-24 03:12 -41.11204 -72.93596 10977 ft 286 kts 191°
2026-04-24 03:12 -41.13183 -72.93839 10736 ft 285 kts 191°
2026-04-24 03:13 -41.15153 -72.94086 10488 ft 283 kts 192°
2026-04-24 03:13 -41.17085 -72.94328 10244 ft 282 kts 191°
2026-04-24 03:13 -41.19032 -72.94569 9996 ft 280 kts 191°
2026-04-24 03:13 -41.20995 -72.94811 9717 ft 279 kts 191°
2026-04-24 03:14 -41.22894 -72.95048 9453 ft 277 kts 191°
2026-04-24 03:14 -41.24811 -72.95309 9191 ft 277 kts 191°
2026-04-24 03:14 -41.26713 -72.95555 8918 ft 273 kts 190°
2026-04-24 03:14 -41.28596 -72.95688 8655 ft 270 kts 187°
2026-04-24 03:15 -41.30468 -72.95723 8389 ft 267 kts 186°
2026-04-24 03:15 -41.32309 -72.95733 8150 ft 263 kts 186°
2026-04-24 03:15 -41.34129 -72.95751 7928 ft 259 kts 187°
2026-04-24 03:15 -41.35919 -72.95806 7694 ft 256 kts 188°
2026-04-24 03:16 -41.37688 -72.95869 7460 ft 253 kts 187°
2026-04-24 03:16 -41.39437 -72.95926 7228 ft 250 kts 187°
2026-04-24 03:16 -41.41173 -72.95985 7002 ft 250 kts 187°
2026-04-24 03:16 -41.42925 -72.96046 6777 ft 252 kts 187°
2026-04-24 03:17 -41.44697 -72.96105 6550 ft 256 kts 187°
2026-04-24 03:17 -41.46476 -72.96161 6312 ft 254 kts 187°
2026-04-24 03:17 -41.48225 -72.96219 6059 ft 250 kts 187°
2026-04-24 03:17 -41.49953 -72.96287 5789 ft 247 kts 188°
2026-04-24 03:18 -41.51097 -72.96343 5638 ft 250 kts 188°
2026-04-24 03:18 -41.53434 -72.96458 5339 ft 250 kts 187°
2026-04-24 03:18 -41.54577 -72.96499 5194 ft 246 kts 187°
2026-04-24 03:18 -41.56270 -72.96558 4977 ft 241 kts 187°
2026-04-24 03:19 -41.57933 -72.96618 4738 ft 237 kts 187°
2026-04-24 03:19 -41.59551 -72.96771 4470 ft 227 kts 201°
2026-04-24 03:19 -41.60737 -72.97878 4255 ft 199 kts 244°
2026-04-24 03:19 -41.61292 -72.99484 4113 ft 181 kts 252°
2026-04-24 03:20 -41.61640 -73.00726 3999 ft 179 kts 255°
2026-04-24 03:20 -41.61885 -73.02333 3813 ft 175 kts 269°
2026-04-24 03:20 -41.61889 -73.03969 3642 ft 177 kts 274°
2026-04-24 03:20 -41.61833 -73.05614 3475 ft 176 kts 274°
2026-04-24 03:21 -41.61746 -73.07219 3280 ft 173 kts 280°
2026-04-24 03:21 -41.61070 -73.08465 3036 ft 168 kts 327°
2026-04-24 03:21 -41.60084 -73.09102 2877 ft 152 kts 329°
2026-04-24 03:21 -41.59166 -73.09691 2740 ft 147 kts 329°
2026-04-24 03:22 -41.58137 -73.10047 2566 ft 162 kts 356°
2026-04-24 03:22 -41.57013 -73.09866 2421 ft 160 kts 358°
2026-04-24 03:22 -41.55911 -73.09789 2265 ft 158 kts 355°
2026-04-24 03:22 -41.54820 -73.09755 2105 ft 157 kts 354°
2026-04-24 03:23 -41.53735 -73.09728 1934 ft 152 kts 354°
2026-04-24 03:23 -41.52729 -73.09697 1761 ft 135 kts 354°
2026-04-24 03:23 -41.51836 -73.09673 1576 ft 124 kts 353°
2026-04-24 03:23 -41.50986 -73.09649 1338 ft 122 kts 355°
2026-04-24 03:24 -41.50123 -73.09646 1172 ft 125 kts 357°
2026-04-24 03:24 -41.49254 -73.09596 1028 ft 123 kts 357°
2026-04-24 03:24 -41.48402 -73.09566 961 ft 126 kts 356°
2026-04-24 03:24 -41.47547 -73.09525 934 ft 119 kts
2026-04-24 03:25 -41.46718 -73.09490 705 ft 122 kts 359°
2026-04-24 03:25 -41.45860 -73.09468 548 ft 125 kts
2026-04-24 03:25 -41.44974 -73.09432 351 ft 126 kts
2026-04-24 03:25 -41.44198 -73.09410 278 ft 93 kts
2026-04-24 03:26 -41.43704 -73.09392 273 ft 50 kts
2026-04-24 03:26 -41.43412 -73.09381 270 ft 39 kts
2026-04-24 03:26 -41.43148 -73.09371 267 ft 37 kts
2026-04-24 03:26 -41.42898 -73.09364 263 ft 35 kts
2026-04-24 03:27 -41.42726 -73.09384 261 ft 18 kts 317°
2026-04-24 03:27 -41.42706 -73.09525 261 ft 13 kts 261°
2026-04-24 03:27 -41.42733 -73.09583 262 ft 2 kts 211°
2026-04-24 03:27 -41.42738 -73.09585 262 ft 1 kts 190°
2026-04-24 03:28 -41.42760 -73.09584 262 ft 5 kts 178°
2026-04-24 03:28 -41.42809 -73.09582 263 ft 9 kts 178°
2026-04-24 03:28 -41.42882 -73.09580 263 ft 12 kts 180°
2026-04-24 03:28 -41.42976 -73.09584 265 ft 15 kts 182°
2026-04-24 03:29 -41.43093 -73.09588 266 ft 18 kts 181°
2026-04-24 03:29 -41.43210 -73.09592 267 ft 16 kts 181°
2026-04-24 03:29 -41.43259 -73.09649 268 ft 8 kts 270°
2026-04-24 03:29 -41.43257 -73.09722 268 ft 8 kts 271°
2026-04-24 03:30 -41.43257 -73.09747 268 ft 0 kts 270°